STARLINK-33872 (64189 NORAD) Tracking and Keplerian Element Data

This shows tracking and keplerian element data for the satellite.

Feedback or suggestion? Click here.




ElementValue
Catalog64189
NameSTARLINK-33872
Epoch Orbit3283
Epoch Day354.02570763
Epoch Year2025
RAAN100.7743
Inclination53.1622
Eccentricity1.33E-05
Argument of Perigee193.9642
Mean Anonmoly166.1355
Mean Motion15.30210579
Decay Rate0.00015901
L11 64189U 25113V 25354.02570763 .00015901 00000+0 54764-3 0 9993
L22 64189 53.1622 100.7743 0000133 193.9642 166.1355 15.30210579 32838



Live tracking and technical data element details for STARLINK-33872 (NORAD 64189). STARLINK-33872 can be tracked NOW for your location showing map with azimuth and elevation plus other details from your city location.







IsCatalogInMostPopularTable: catalog: 64189, numindb: 4
Update: records affected: 1



GetName: 64189 STARLINK-33872

Hit Count: updated at: Mon, 09 Feb 2026 07:54:07 GMT